Tracking 20624 objects as of 28-Mar-2020
HD Live streaming from Space Station
objects crossing your sky now

STTW-T1

Track STTW-T1 now!
10-day predictions
STTW-T1 is classified as:


NORAD ID: 14670
Int'l Code: 1984-008A
Perigee: 472.8 km
Apogee: 6,331.3 km
Inclination: 36.1 °
Period: 160.3 minutes
Semi major axis: 9773 km
RCS: 3.9341 m2 (large)
Launch date: January 29, 1984
Source: People's Republic of China (PRC)
Launch site: Xichang Space Center, China (XSC)
aabbcc
Your satellite tracking list
Your tracking list is empty




NASA's NSSDC Master Catalog

Two Line Element Set (TLE):
1 14670U 84008A   20087.98446044  .00000054  00000-0  15721-4 0  9993
2 14670  36.1394 299.8642 2997300 265.8450  59.9192  8.98586126179067
Source of the keplerian elements: AFSPC